Location: Lane
(33.5226°N, 79.8788°W)
Time: 06:47:16
(UTC+00:00)

Explorer 7 - Pass Details

Date: 07 October 2022
Orbit: 481 x 665 km, 50.3° (Epoch: 27 November)

Event Time Altitude Azimuth Distance (km) Brightness Sun altitude
Rises 14:42:44 0° 259° (W) 2,972 10.3 38.0°
Reaches altitude 10° 14:45:22 10° 272° (W) 2,076 9.5 38.4°
Maximum altitude 14:49:28 27° 330° (NNW) 1,263 8.5 39.0°
Drops below altitude 10° 14:53:36 10° 29° (NNE) 2,084 9.7 39.6°
Sets 14:56:15 0° 41° (NE) 2,987 10.5 40.0°
